Weather History for Moncks Corner, SC

Change the Weather History Date:

Thursday, August 29, 2013

  Actual Average (KCHS) Record (KCHS)
Temperature  
Mean Temperature 83 °F 80 °F  
Max Temperature 93 °F 88 °F 97 °F (1990)
Min Temperature 73 °F 71 °F 57 °F (1986)
Degree Days  
Heating Degree Days 0 0  
Month to date heating degree days 0  
Since 1 June heating degree days 1  
Since 1 July heating degree days 0  
Cooling Degree Days 18 15  
Month to date cooling degree days 465  
Year to date cooling degree days 1777  
Since 1 June cooling degree days 1415  
Growing Degree Days 33 (Base 50)    
Moisture  
Dew Point 75 °F    
Average Humidity 80    
Maximum Humidity 100    
Minimum Humidity 56    
Precipitation  
Precipitation 0.12 in 0.24 in 3.98 in (2004)
Month to date precipitation 6.67  
Year to date precipitation 35.16  
Sea Level Pressure  
Sea Level Pressure 29.93 in    
Wind  
Wind Speed 5 mph (WSW)    
Max Wind Speed 9 mph    
Max Gust Speed 16 mph    
Visibility 8 miles    
Events Rain , Thunderstorm    
T = Trace of Precipitation, MM = Missing Value Source: NWS Daily Summary

Daily Weather History Graph

Daily Weather History Graph

Search for Another Location

Airport:

Trip Planner

Search our weather history database for the weather conditions in past years. The results will help you decide how hot, cold, wet, or windy it might be!

Date:

Astronomy

Aug. 29, 2013 Rise Set
Actual Time 6:52 AM EDT 7:48 PM EDT
Civil Twilight 6:27 AM EDT 8:14 PM EDT
Nautical Twilight 5:57 AM EDT 8:44 PM EDT
Astronomical Twilight 5:26 AM EDT 9:14 PM EDT
Moon 12:51 AM EDT (8/29) 3:07 PM EDT (8/29)
Length of Visible Light 13h 46m
Length of Day
12h 56m
Last Quarter, 38% of the Moon is Illuminated
Aug 29
Last Quarter
Sep 5
New
Sep 12
First Quarter
Sep 19
Full
Sep 26
Last Quarter

Hourly Weather History & Observations

Time (EDT) Temp. Heat Index Dew Point Humidity Pressure Visibility Wind Dir Wind Speed Gust Speed Precip Events Conditions
12:15 AM 77.0 °F - 73.4 °F 89% 29.98 in 10.0 mi SW 5.8 mph - N/A   Clear
12:35 AM 77.0 °F - 73.4 °F 89% 29.98 in 10.0 mi SW 4.6 mph - N/A   Clear
12:55 AM 77.0 °F - 73.4 °F 89% 29.97 in 10.0 mi WSW 6.9 mph - N/A   Clear
1:15 AM 77.0 °F - 73.4 °F 89% 29.97 in 10.0 mi WSW 6.9 mph - N/A   Clear
1:35 AM 77.0 °F - 73.4 °F 89% 29.96 in 10.0 mi SW 5.8 mph - N/A   Clear
1:55 AM 77.0 °F - 73.4 °F 89% 29.97 in 10.0 mi WSW 5.8 mph - N/A   Clear
2:15 AM 77.0 °F - 73.4 °F 89% 29.96 in 10.0 mi WSW 8.1 mph - N/A   Clear
2:35 AM 77.0 °F - 73.4 °F 89% 29.96 in 10.0 mi SW 9.2 mph - N/A   Clear
2:55 AM 77.0 °F - 73.4 °F 89% 29.95 in 10.0 mi SW 5.8 mph - N/A   Clear
3:15 AM 75.2 °F - 73.4 °F 94% 29.95 in 10.0 mi SW 8.1 mph - N/A   Clear
3:35 AM 75.2 °F - 73.4 °F 94% 29.95 in 10.0 mi WSW 6.9 mph - N/A   Clear
3:55 AM 75.2 °F - 73.4 °F 94% 29.95 in 10.0 mi SW 8.1 mph - N/A   Clear
4:15 AM 75.2 °F - 73.4 °F 94% 29.95 in 10.0 mi SW 5.8 mph - N/A   Clear
4:35 AM 75.2 °F - 73.4 °F 94% 29.95 in 10.0 mi SW 5.8 mph - N/A   Clear
4:55 AM 75.2 °F - 73.4 °F 94% 29.95 in 10.0 mi SW 5.8 mph - N/A   Clear
5:15 AM 75.2 °F - 73.4 °F 94% 29.95 in 10.0 mi WSW 6.9 mph - N/A   Clear
5:35 AM 75.2 °F - 71.6 °F 89% 29.95 in 10.0 mi SW 5.8 mph - N/A   Clear
5:55 AM 75.2 °F - 73.4 °F 94% 29.95 in 10.0 mi WSW 5.8 mph - N/A   Clear
6:15 AM 73.4 °F - 71.6 °F 94% 29.95 in 7.0 mi SW 6.9 mph - N/A   Clear
6:35 AM 73.4 °F - 71.6 °F 94% 29.95 in 7.0 mi SW 8.1 mph - N/A   Clear
6:55 AM 73.4 °F - 71.6 °F 94% 29.95 in 10.0 mi SW 6.9 mph - N/A   Clear
7:15 AM 73.4 °F - 71.6 °F 94% 29.95 in 7.0 mi SW 8.1 mph - N/A   Clear
7:35 AM 73.4 °F - 71.6 °F 94% 29.95 in 7.0 mi SW 8.1 mph - N/A   Clear
7:55 AM 73.4 °F - 71.6 °F 94% 29.95 in 7.0 mi WSW 5.8 mph - N/A   Clear
8:15 AM 75.2 °F - 71.6 °F 89% 29.95 in 10.0 mi SW 6.9 mph - N/A   Clear
8:35 AM 75.2 °F - 71.6 °F 89% 29.96 in 10.0 mi SW 5.8 mph - N/A   Clear
8:55 AM 77.0 °F - 71.6 °F 83% 29.96 in 7.0 mi WSW 4.6 mph - N/A   Clear
9:15 AM 78.8 °F - 73.4 °F 83% 29.96 in 10.0 mi WSW 5.8 mph - N/A   Clear
9:35 AM 78.8 °F - 73.4 °F 83% 29.95 in 7.0 mi SW 8.1 mph - N/A   Clear
9:55 AM 80.6 °F 85.4 °F 73.4 °F 79% 29.95 in 10.0 mi WSW 6.9 mph - N/A   Clear
10:15 AM 82.4 °F 88.2 °F 73.4 °F 74% 29.95 in 7.0 mi WSW 5.8 mph - N/A   Clear
10:35 AM 82.4 °F 89.5 °F 75.2 °F 79% 29.95 in 7.0 mi WSW 5.8 mph - N/A   Clear
10:55 AM 84.2 °F 92.3 °F 75.2 °F 74% 29.95 in 7.0 mi WSW 6.9 mph - N/A   Clear
11:15 AM 84.2 °F 92.3 °F 75.2 °F 74% 29.95 in 7.0 mi WSW 4.6 mph - N/A   Clear
11:35 AM 86.0 °F 95.1 °F 75.2 °F 70% 29.95 in 5.0 mi Calm Calm - N/A   Haze
11:55 AM 86.0 °F 95.1 °F 75.2 °F 70% 29.95 in 10.0 mi West 3.5 mph - N/A   Clear
12:15 PM 87.8 °F 99.7 °F 77.0 °F 70% 29.93 in 7.0 mi West 3.5 mph - N/A   Clear
12:35 PM 87.8 °F 99.7 °F 77.0 °F 70% 29.93 in 10.0 mi WSW 6.9 mph - N/A   Clear
12:55 PM 89.6 °F 102.2 °F 77.0 °F 66% 29.93 in 7.0 mi West 4.6 mph - N/A   Clear
1:15 PM 91.4 °F 107.2 °F 78.8 °F 66% 29.92 in 7.0 mi Calm Calm - N/A   Clear
1:35 PM 91.4 °F 107.2 °F 78.8 °F 66% 29.92 in 7.0 mi West 3.5 mph - N/A   Scattered Clouds
1:55 PM 91.4 °F 105.1 °F 77.0 °F 63% 29.91 in 7.0 mi West 3.5 mph - N/A   Scattered Clouds
2:15 PM 91.4 °F 105.1 °F 77.0 °F 63% 29.91 in 7.0 mi WSW 5.8 mph - N/A   Scattered Clouds
2:35 PM 93.2 °F 107.2 °F 77.0 °F 59% 29.90 in 7.0 mi North 4.6 mph - N/A   Clear
2:55 PM 93.2 °F 107.2 °F 77.0 °F 59% 29.90 in 10.0 mi NNE 6.9 mph - N/A   Clear
3:15 PM 93.2 °F 107.2 °F 77.0 °F 59% 29.90 in 10.0 mi Calm Calm - N/A   Clear
3:35 PM 93.2 °F 107.2 °F 77.0 °F 59% 29.89 in 10.0 mi NNW 4.6 mph - N/A   Clear
3:55 PM 93.2 °F 107.2 °F 77.0 °F 59% 29.89 in 10.0 mi North 6.9 mph - N/A   Clear
4:15 PM 93.2 °F 105.0 °F 75.2 °F 56% 29.88 in 10.0 mi North 8.1 mph - N/A   Clear
4:35 PM 93.2 °F 107.2 °F 77.0 °F 59% 29.88 in 7.0 mi Calm Calm - N/A   Clear
4:55 PM 93.2 °F 105.0 °F 75.2 °F 56% 29.88 in 10.0 mi North 4.6 mph - N/A   Clear
5:15 PM 93.2 °F 107.2 °F 77.0 °F 59% 29.88 in 10.0 mi Calm Calm - N/A   Clear
5:35 PM 93.2 °F 107.2 °F 77.0 °F 59% 29.88 in 7.0 mi North 3.5 mph - N/A   Clear
5:55 PM 93.2 °F 107.2 °F 77.0 °F 59% 29.87 in 7.0 mi Calm Calm - N/A   Clear
6:15 PM 91.4 °F 105.1 °F 77.0 °F 63% 29.87 in 7.0 mi Calm Calm - N/A   Clear
6:35 PM 91.4 °F 105.1 °F 77.0 °F 63% 29.87 in 7.0 mi Calm Calm - N/A   Clear
6:55 PM 89.6 °F 104.7 °F 78.8 °F 70% 29.87 in 10.0 mi Calm Calm - N/A   Clear
7:15 PM 87.8 °F 102.5 °F 78.8 °F 75% 29.86 in 7.0 mi Calm Calm - N/A   Clear
7:35 PM 86.0 °F 101.9 °F 80.6 °F 84% 29.87 in 7.0 mi Calm Calm - N/A   Clear
7:55 PM 86.0 °F 101.9 °F 80.6 °F 84% 29.87 in 7.0 mi Calm Calm - N/A   Clear
8:15 PM 84.2 °F 98.3 °F 80.6 °F 89% 29.88 in 5.0 mi Calm Calm - N/A   Clear
8:35 PM 82.4 °F 94.0 °F 80.6 °F 94% 29.89 in 7.0 mi Calm Calm - N/A   Scattered Clouds
8:55 PM 84.2 °F 94.1 °F 77.0 °F 79% 29.90 in 10.0 mi NNE 8.1 mph 16.1 mph N/A   Mostly Cloudy
9:15 PM 82.4 °F 89.5 °F 75.2 °F 79% 29.91 in 10.0 mi ENE 8.1 mph - N/A Thunderstorm Mostly Cloudy
9:35 PM 82.4 °F 89.5 °F 75.2 °F 79% 29.92 in 10.0 mi ENE 6.9 mph - N/A   Scattered Clouds
9:55 PM 80.6 °F 86.2 °F 75.2 °F 84% 29.94 in 10.0 mi NNE 6.9 mph - N/A   Mostly Cloudy
10:15 PM 77.0 °F - 75.2 °F 94% 29.94 in 5.0 mi Calm Calm - 0.11 in Rain , Thunderstorm Thunderstorms and Rain
10:35 PM 77.0 °F - 75.2 °F 94% 29.94 in 7.0 mi Calm Calm - 0.12 in Thunderstorm Overcast
10:55 PM 77.0 °F - 77.0 °F 100% 29.94 in 5.0 mi Calm Calm - 0.12 in   Overcast
11:15 PM 77.0 °F - 77.0 °F 100% 29.93 in 5.0 mi Calm Calm - N/A   Overcast
11:35 PM 77.0 °F - 77.0 °F 100% 29.94 in 4.0 mi Calm Calm - N/A   Scattered Clouds
11:55 PM 77.0 °F - 77.0 °F 100% 29.94 in 4.0 mi Calm Calm - N/A   Mostly Cloudy